EN

Hourly Weather Alpharetta

Today, 22 January, Friday

Time Temperature Precipitation Wind Pressure Humidity
00:00 +9°C° 0 mm 2 mps 730 mmHg 96%
01:00 +9°C° 0 mm 2 mps 730 mmHg 95%
02:00 +9°C° 0 mm 2 mps 730 mmHg 95%
03:00 +8°C° 0 mm 2 mps 730 mmHg 94%
04:00 +8°C° 0 mm 2 mps 730 mmHg 93%
05:00 +8°C° 0 mm 2 mps 730 mmHg 92%
06:00 +8°C° 0 mm 2 mps 730 mmHg 91%
07:00 +8°C° 0 mm 2 mps 730 mmHg 87%
08:00 +8°C° 0 mm 2 mps 731 mmHg 82%
09:00 +10°C° 0 mm 1 mps 731 mmHg 78%
10:00 +10°C° 0 mm 2 mps 731 mmHg 67%
11:00 +13°C° 0 mm 2 mps 731 mmHg 56%
12:00 +14°C° 0 mm 2 mps 731 mmHg 45%
13:00 +13°C° 0 mm 3 mps 731 mmHg 44%
14:00 +13°C° 0 mm 3 mps 731 mmHg 42%
15:00 +13°C° 0 mm 3 mps 731 mmHg 41%
16:00 +12°C° 0.1 mm 3 mps 732 mmHg 49%
17:00 +10°C° 0.1 mm 2 mps 732 mmHg 57%
18:00 +9°C° 0.1 mm 2 mps 732 mmHg 64%
19:00 +8°C° 0 mm 2 mps 733 mmHg 66%
20:00 +8°C° 0 mm 2 mps 733 mmHg 67%
21:00 +7°C° 0 mm 2 mps 733 mmHg 68%
22:00 +6°C° 0 mm 2 mps 734 mmHg 69%
23:00 +5°C° 0 mm 2 mps 734 mmHg 70%

Tomorrow, 23 January, Saturday

Time Temperature Precipitation Wind Pressure Humidity
00:00 +4°C° 0 mm 2 mps 734 mmHg 71%
01:00 +4°C° 0 mm 2 mps 734 mmHg 70%
02:00 +3°C° 0 mm 2 mps 734 mmHg 69%
03:00 +3°C° 0 mm 2 mps 734 mmHg 68%
04:00 +3°C° 0 mm 2 mps 735 mmHg 68%
05:00 +2°C° 0 mm 2 mps 735 mmHg 67%
06:00 +3°C° 0 mm 1 mps 736 mmHg 67%
07:00 +4°C° 0 mm 1 mps 736 mmHg 61%
08:00 +6°C° 0 mm 1 mps 737 mmHg 55%
09:00 +7°C° 0 mm 1 mps 737 mmHg 50%
10:00 +9°C° 0 mm 1 mps 737 mmHg 46%
11:00 +11°C° 0 mm 1 mps 737 mmHg 42%
12:00 +13°C° 0 mm 2 mps 737 mmHg 38%
13:00 +13°C° 0 mm 2 mps 737 mmHg 38%
14:00 +13°C° 0 mm 2 mps 736 mmHg 39%
15:00 +14°C° 0 mm 2 mps 736 mmHg 39%
16:00 +12°C° 0 mm 2 mps 736 mmHg 45%
17:00 +10°C° 0 mm 2 mps 737 mmHg 52%
18:00 +9°C° 0 mm 2 mps 737 mmHg 58%
19:00 +8°C° 0 mm 2 mps 737 mmHg 61%
20:00 +7°C° 0 mm 2 mps 737 mmHg 64%
21:00 +7°C° 0 mm 2 mps 737 mmHg 67%
22:00 +6°C° 0 mm 2 mps 737 mmHg 67%
23:00 +6°C° 0 mm 2 mps 737 mmHg 67%

Day after tomorrow, 24 January, Sunday

Time Temperature Precipitation Wind Pressure Humidity
00:00 +4°C° 0 mm 3 mps 737 mmHg 67%
01:00 +4°C° 0 mm 3 mps 737 mmHg 66%
02:00 +4°C° 0 mm 3 mps 737 mmHg 64%
03:00 +4°C° 0 mm 3 mps 737 mmHg 62%
04:00 +4°C° 0 mm 3 mps 737 mmHg 61%
05:00 +4°C° 0 mm 3 mps 737 mmHg 60%
06:00 +4°C° 0 mm 3 mps 737 mmHg 59%
07:00 +5°C° 0 mm 3 mps 737 mmHg 57%
08:00 +5°C° 0 mm 3 mps 737 mmHg 55%
09:00 +5°C° 0 mm 3 mps 737 mmHg 53%
10:00 +7°C° 0 mm 3 mps 737 mmHg 52%
11:00 +8°C° 0 mm 3 mps 736 mmHg 52%
12:00 +8°C° 0 mm 3 mps 736 mmHg 51%
13:00 +9°C° 0 mm 2 mps 735 mmHg 53%
14:00 +9°C° 0 mm 2 mps 735 mmHg 55%
15:00 +11°C° 0 mm 1 mps 734 mmHg 57%
16:00 +10°C° 0 mm 1 mps 735 mmHg 61%
17:00 +10°C° 0 mm 1 mps 735 mmHg 65%
18:00 +9°C° 0 mm 1 mps 735 mmHg 69%
19:00 +9°C° 0 mm 1 mps 735 mmHg 70%
20:00 +9°C° 0 mm 1 mps 734 mmHg 72%
21:00 +9°C° 0 mm 1 mps 734 mmHg 73%
22:00 +8°C° 0 mm 2 mps 734 mmHg 75%
23:00 +8°C° 0 mm 2 mps 733 mmHg 76%

25 January, Monday

Time Temperature Precipitation Wind Pressure Humidity
00:00 +8°C° 0 mm 2 mps 733 mmHg 78%
01:00 +8°C° 1.1 mm 2 mps 732 mmHg 84%
02:00 +8°C° 1.1 mm 3 mps 731 mmHg 89%
03:00 +8°C° 1.1 mm 3 mps 731 mmHg 95%
04:00 +8°C° 2.7 mm 3 mps 731 mmHg 95%
05:00 +8°C° 2.7 mm 2 mps 730 mmHg 96%
06:00 +8°C° 2.7 mm 2 mps 730 mmHg 96%
07:00 +9°C° 0.4 mm 2 mps 730 mmHg 97%
08:00 +10°C° 0.4 mm 2 mps 730 mmHg 98%
09:00 +12°C° 0.4 mm 2 mps 730 mmHg 99%
10:00 +14°C° 0.1 mm 2 mps 729 mmHg 98%
11:00 +14°C° 0.1 mm 3 mps 728 mmHg 97%
12:00 +15°C° 0.1 mm 4 mps 728 mmHg 95%
13:00 +17°C° 0.1 mm 4 mps 727 mmHg 93%
14:00 +18°C° 0.1 mm 4 mps 726 mmHg 90%
15:00 +18°C° 0.1 mm 4 mps 726 mmHg 87%
16:00 +18°C° 0.1 mm 4 mps 726 mmHg 89%
17:00 +18°C° 0.1 mm 3 mps 726 mmHg 91%
18:00 +17°C° 0.1 mm 3 mps 726 mmHg 94%
19:00 +17°C° 0.3 mm 3 mps 726 mmHg 94%
20:00 +17°C° 0.3 mm 4 mps 726 mmHg 94%
21:00 +18°C° 0.3 mm 4 mps 726 mmHg 94%
22:00 +18°C° 0.2 mm 4 mps 726 mmHg 94%
23:00 +18°C° 0.2 mm 4 mps 726 mmHg 94%

26 January, Tuesday

Time Temperature Precipitation Wind Pressure Humidity
00:00 +18°C° 0.2 mm 4 mps 726 mmHg 93%
01:00 +17°C° 0.1 mm 4 mps 727 mmHg 90%
02:00 +15°C° 0.1 mm 4 mps 727 mmHg 86%
03:00 +14°C° 0.1 mm 4 mps 727 mmHg 83%
04:00 +13°C° 0 mm 4 mps 728 mmHg 82%
05:00 +12°C° 0 mm 4 mps 728 mmHg 81%
06:00 +11°C° 0 mm 4 mps 729 mmHg 80%
07:00 +12°C° 0 mm 4 mps 729 mmHg 76%
08:00 +12°C° 0 mm 4 mps 730 mmHg 72%
09:00 +12°C° 0 mm 4 mps 731 mmHg 68%
10:00 +13°C° 0 mm 4 mps 731 mmHg 64%
11:00 +14°C° 0 mm 4 mps 731 mmHg 59%
12:00 +15°C° 0 mm 4 mps 731 mmHg 54%
13:00 +15°C° 0 mm 4 mps 731 mmHg 54%
14:00 +15°C° 0 mm 4 mps 731 mmHg 55%
15:00 +15°C° 0 mm 4 mps 731 mmHg 55%
16:00 +14°C° 0 mm 3 mps 732 mmHg 60%
17:00 +13°C° 0 mm 3 mps 732 mmHg 66%
18:00 +11°C° 0 mm 3 mps 733 mmHg 71%
19:00 +12°C° 0 mm 2 mps 733 mmHg 72%
20:00 +12°C° 0 mm 1 mps 733 mmHg 73%
21:00 +11°C° 0 mm 1 mps 734 mmHg 74%
22:00 +11°C° 0 mm 1 mps 734 mmHg 74%
23:00 +11°C° 0 mm 1 mps 733 mmHg 73%

27 January, Wednesday

Time Temperature Precipitation Wind Pressure Humidity
00:00 +11°C° 0 mm 1 mps 733 mmHg 73%
01:00 +10°C° 0 mm 2 mps 733 mmHg 74%
02:00 +10°C° 0 mm 3 mps 733 mmHg 76%
03:00 +10°C° 0 mm 4 mps 733 mmHg 77%
04:00 +8°C° 1.3 mm 5 mps 733 mmHg 80%
05:00 +7°C° 1.3 mm 5 mps 733 mmHg 83%
06:00 +7°C° 1.3 mm 5 mps 733 mmHg 86%
07:00 +7°C° 5.5 mm 4 mps 734 mmHg 88%
08:00 +6°C° 5.5 mm 4 mps 734 mmHg 90%
09:00 +6°C° 5.5 mm 4 mps 734 mmHg 92%
10:00 +6°C° 3.6 mm 4 mps 733 mmHg 91%
11:00 +6°C° 3.6 mm 5 mps 733 mmHg 91%
12:00 +4°C° 3.6 mm 6 mps 732 mmHg 90%
13:00 +5°C° 2.4 mm 5 mps 731 mmHg 90%
14:00 +5°C° 2.4 mm 5 mps 731 mmHg 90%
15:00 +5°C° 2.4 mm 4 mps 730 mmHg 90%
16:00 +5°C° 0.3 mm 4 mps 730 mmHg 90%
17:00 +5°C° 0.3 mm 3 mps 730 mmHg 91%
18:00 +5°C° 0.3 mm 3 mps 730 mmHg 91%
19:00 +7°C° 1.3 mm 2 mps 731 mmHg 91%
20:00 +7°C° 1.3 mm 2 mps 731 mmHg 92%
21:00 +8°C° 1.3 mm 1 mps 732 mmHg 93%
22:00 +7°C° 0 mm 3 mps 732 mmHg 90%
23:00 +7°C° 0 mm 4 mps 732 mmHg 87%
Show more